Location: Marcé
(47.5801°N, 0.3280°W)
Time: 11:44:40
(UTC+01:00)

deb Explorer IX - Pass Details

Date: 30 November 2021
Orbit: 544 x 1082 km, 38.8° (Epoch: 17 January)

Event Time Altitude Azimuth Distance (km) Brightness Sun altitude
Rises 14:33:14 0° 246° (WSW) 2,730 ? 16.9°
Reaches altitude 10° 14:35:49 10° 232° (SW) 1,810 ? 16.7°
Maximum altitude 14:39:08 24° 177° (S) 1,146 ? 16.5°
Drops below altitude 10° 14:42:29 10° 123° (ESE) 1,826 ? 16.2°
Sets 14:45:05 0° 109° (ESE) 2,760 ? 16.0°
